Location: Tierz
(42.1336°N, 0.3549°W)
Time: 15:56:21
(UTC+00:00)

Cosmos 1386 Rocket - Pass Details

Date: 29 October 2020
Orbit: 930 x 1005 km, 83.0° (Epoch: 25 November)

Event Time Altitude Azimuth Distance (km) Brightness Sun altitude
Rises 18:16:56 0° 354° (N) 3,742 7.6 -15.0°
Reaches altitude 10° 18:19:31 10° 358° (N) 2,785 6.9 -15.5°
Maximum altitude 18:25:53 66° 80° (E) 1,083 4.5 -16.7°
Drops below altitude 10° 18:32:07 10° 162° (SSE) 2,730 6.7 -17.9°
Sets 18:34:38 0° 166° (SSE) 3,664 7.4 -18.3°
